Simultaneous Nadir Overpasses (SNOs) Predictions

Prediction of SNOs between AQUA and METOP-C Satellite Orbit:

Table of predicted SNOs for the next 14.0 days since TLE Epoch: 8/23/2019
Index Date (AQUA) Time (AQUA) Lat,Lon (AQUA) SZA (AQUA ) Date (METOP-C) Time (METOP-C) Lat,Lon (METOP-C) SZA (METOP-C ) Distance(km) Time Diff (sec)
1 08/24/2019 14:59:44 -73.76, 129.44 117.29 08/24/2019 14:59:24 -73.77, 129.39 117.27 2.32 20
2 08/24/2019 15:49:14 73.86, -63.15 62.84 08/24/2019 15:50:03 73.83, -63.14 62.80 3.48 49
3 08/27/2019 09:44:24 73.22, 29.35 63.11 08/27/2019 09:43:17 73.16, 27.08 63.13 73.38 67
4 08/27/2019 10:34:00 -73.79,-164.21 116.28 08/27/2019 10:33:46 -73.79,-164.15 116.28 1.69 14
5 08/27/2019 11:23:29 73.85, 3.31 63.79 08/27/2019 11:24:25 73.84, 3.30 63.78 0.91 56
6 08/30/2019 05:18:43 73.48, 95.26 64.37 08/30/2019 05:17:33 73.43, 94.08 64.36 37.95 70
7 08/30/2019 06:08:14 -73.79, -97.75 115.30 08/30/2019 06:08:08 -73.76, -97.81 115.32 3.19 6
8 08/30/2019 06:57:43 73.84, 69.76 64.78 08/30/2019 06:58:46 73.85, 69.73 64.78 1.42 63
9 09/02/2019 00:53:02 73.69, 161.25 65.60 09/02/2019 00:51:50 73.69, 161.09 65.61 5.05 72
10 09/02/2019 01:42:29 -73.78, -31.31 114.30 09/02/2019 01:42:30 -73.78, -31.36 114.29 1.47 1
11 09/02/2019 02:31:58 73.84, 136.20 65.78 09/02/2019 02:33:08 73.87, 136.17 65.80 2.79 70
12 09/04/2019 20:27:18 73.75,-132.43 66.68 09/04/2019 20:26:11 73.75,-132.36 66.69 2.52 67
13 09/04/2019 21:16:44 -73.78, 35.13 113.27 09/04/2019 21:16:52 -73.81, 35.10 113.25 2.55 8




NCC Satellite Simultaneous Nadir Overpasses (SNOs) Prediction Service
